TimeEDT,TemperatureF,Dew PointF,Humidity,Sea Level PressureIn,VisibilityMPH,Wind Direction,Wind SpeedMPH,Gust SpeedMPH,PrecipitationIn,Events,Conditions,WindDirDegrees,DateUTC
12:53 AM,46.0,44.1,93,30.18,10.0,Calm,Calm,-,N/A,,Clear,0,2014-03-09 05:53:00
1:53 AM,45.0,43.0,93,30.17,10.0,Calm,Calm,-,N/A,,Clear,0,2014-03-09 06:53:00
3:53 AM,44.1,42.1,93,30.16,10.0,Calm,Calm,-,N/A,,Clear,0,2014-03-09 07:53:00
4:53 AM,43.0,43.0,100,30.16,10.0,Calm,Calm,-,N/A,,Clear,0,2014-03-09 08:53:00
5:53 AM,42.1,41.0,96,30.17,10.0,West,3.5,-,N/A,,Clear,280,2014-03-09 09:53:00
6:53 AM,42.1,39.9,92,30.18,10.0,Calm,Calm,-,N/A,,Clear,0,2014-03-09 10:53:00
7:53 AM,41.0,39.9,96,30.20,10.0,Calm,Calm,-,N/A,,Clear,0,2014-03-09 11:53:00
8:53 AM,48.0,46.0,93,30.21,10.0,North,-9999.0,-,N/A,,Clear,0,2014-03-09 12:53:00
9:53 AM,57.0,48.9,74,30.22,10.0,Calm,Calm,-,N/A,,Clear,0,2014-03-09 13:53:00
10:53 AM,64.0,50.0,60,30.24,10.0,NW,5.8,-,N/A,,Clear,320,2014-03-09 14:53:00
11:53 AM,68.0,48.9,50,30.22,10.0,WNW,4.6,-,N/A,,Clear,300,2014-03-09 15:53:00
12:53 PM,70.0,48.9,47,30.19,10.0,NW,3.5,-,N/A,,Clear,320,2014-03-09 16:53:00
1:53 PM,72.0,46.9,41,30.16,10.0,Variable,5.8,-,N/A,,Clear,0,2014-03-09 17:53:00
2:53 PM,73.9,46.0,37,30.14,10.0,NW,9.2,-,N/A,,Clear,310,2014-03-09 18:53:00
3:53 PM,75.0,46.9,37,30.12,10.0,Variable,4.6,-,N/A,,Clear,0,2014-03-09 19:53:00
4:53 PM,75.0,46.9,37,30.11,10.0,West,10.4,-,N/A,,Clear,260,2014-03-09 20:53:00
5:53 PM,75.0,46.0,36,30.10,10.0,WNW,6.9,-,N/A,,Clear,290,2014-03-09 21:53:00
6:53 PM,71.1,46.0,41,30.10,10.0,West,8.1,-,N/A,,Clear,270,2014-03-09 22:53:00
7:53 PM,66.0,48.0,52,30.10,10.0,West,3.5,-,N/A,,Clear,270,2014-03-09 23:53:00
8:53 PM,64.9,51.1,61,30.12,10.0,West,8.1,-,N/A,,Clear,260,2014-03-10 00:53:00
9:53 PM,62.1,48.9,62,30.13,10.0,West,5.8,-,N/A,,Clear,270,2014-03-10 01:53:00
10:53 PM,59.0,48.0,67,30.16,10.0,West,6.9,-,N/A,,Clear,280,2014-03-10 02:53:00
11:53 PM,55.9,46.9,72,30.14,10.0,West,5.8,-,N/A,,Clear,270,2014-03-10 03:53:00
12:53 AM,55.9,46.9,72,30.13,10.0,West,5.8,-,N/A,,Clear,270,2014-03-10 04:53:00